| time (UTC) | temp F | wind direction | speed MPH | gust MPH | rain 1hr in | rain 24hr in | rain mn in | humidity % | barometer mb |
| 20260508113105 | 45 | 316 | 5.0 | 10.0 | 0.00 | 0.06 | 0.06 | 91 | 1014.3 |
| 20260508112604 | 45 | 315 | 4.0 | 10.0 | 0.00 | 0.06 | 0.06 | 91 | 1014.3 |
| 20260508112105 | 45 | 314 | 4.0 | 9.0 | 0.00 | 0.06 | 0.06 | 91 | 1014.2 |
| 20260508111604 | 45 | 311 | 4.0 | 9.0 | 0.00 | 0.06 | 0.06 | 92 | 1014.1 |
| 20260508111104 | 45 | 326 | 1.0 | 6.0 | 0.00 | 0.06 | 0.06 | 92 | 1014.0 |
| 20260508110604 | 44 | 309 | 1.0 | 3.0 | 0.00 | 0.06 | 0.06 | 92 | 1013.9 |
| 20260508110104 | 44 | 307 | 2.0 | 6.0 | 0.00 | 0.06 | 0.06 | 92 | 1013.9 |
| 20260508104604 | 43 | 309 | 1.0 | 3.0 | 0.00 | 0.06 | 0.06 | 92 | 1013.6 |
| 20260508104105 | 43 | 311 | 1.0 | 3.0 | 0.00 | 0.06 | 0.06 | 92 | 1013.6 |
| 20260508103604 | 43 | 293 | 2.0 | 7.0 | 0.00 | 0.06 | 0.06 | 92 | 1013.5 |
| 20260508103104 | 43 | 298 | 2.0 | 6.0 | 0.00 | 0.06 | 0.06 | 92 | 1013.5 |
| 20260508102104 | 43 | 310 | 2.0 | 3.0 | 0.00 | 0.06 | 0.06 | 92 | 1013.6 |
| 20260508101604 | 43 | 305 | 2.0 | 6.0 | 0.00 | 0.06 | 0.06 | 92 | 1013.5 |
| 20260508101105 | 43 | 308 | 3.0 | 6.0 | 0.00 | 0.06 | 0.06 | 92 | 1013.5 |
| 20260508100605 | 43 | 304 | 2.0 | 6.0 | 0.00 | 0.06 | 0.06 | 92 | 1013.4 |
| 20260508100104 | 43 | 298 | 2.0 | 7.0 | 0.00 | 0.06 | 0.06 | 92 | 1013.2 |
| 20260508095604 | 43 | 286 | 3.0 | 6.0 | 0.00 | 0.06 | 0.06 | 92 | 1013.2 |
| 20260508095103 | 43 | 308 | 3.0 | 7.0 | 0.00 | 0.06 | 0.06 | 92 | 1013.2 |
| 20260508094604 | 43 | 303 | 1.0 | 6.0 | 0.00 | 0.06 | 0.06 | 92 | 1013.2 |
| 20260508094105 | 43 | 306 | 1.0 | 3.0 | 0.00 | 0.06 | 0.06 | 91 | 1013.2 |
| 20260508093604 | 43 | 308 | 2.0 | 3.0 | 0.00 | 0.06 | 0.06 | 91 | 1013.1 |
| 20260508093104 | 43 | 314 | 2.0 | 6.0 | 0.00 | 0.06 | 0.06 | 91 | 1013.1 |
| 20260508092103 | 43 | 294 | 0.0 | 3.0 | 0.00 | 0.06 | 0.06 | 91 | 1013.2 |
| 20260508091604 | 43 | 311 | 1.0 | 3.0 | 0.00 | 0.06 | 0.06 | 91 | 1013.1 |
| 20260508091105 | 43 | 303 | 0.0 | 3.0 | 0.00 | 0.06 | 0.06 | 91 | 1013.0 |
| 20260508090603 | 43 | 302 | 0.0 | 2.0 | 0.00 | 0.06 | 0.06 | 91 | 1013.0 |
| 20260508090104 | 43 | 302 | 1.0 | 3.0 | 0.00 | 0.06 | 0.06 | 90 | 1012.8 |
| 20260508085604 | 43 | 302 | 0.0 | 2.0 | 0.00 | 0.06 | 0.06 | 91 | 1012.8 |
| 20260508085104 | 44 | 302 | 0.0 | 0.0 | 0.00 | 0.06 | 0.06 | 90 | 1012.8 |
| 20260508083604 | 44 | 302 | 0.0 | 0.0 | 0.00 | 0.06 | 0.06 | 90 | 1012.7 |
| 20260508082604 | 44 | 302 | 0.0 | 0.0 | 0.00 | 0.06 | 0.06 | 90 | 1012.7 |
| 20260508082104 | 44 | 302 | 0.0 | 0.0 | 0.00 | 0.06 | 0.06 | 90 | 1012.7 |
| 20260508081605 | 45 | 302 | 0.0 | 1.0 | 0.00 | 0.06 | 0.06 | 90 | 1012.8 |
| 20260508080604 | 45 | 299 | 0.0 | 1.0 | 0.00 | 0.06 | 0.06 | 90 | 1012.8 |
| 20260508080104 | 45 | 299 | 0.0 | 2.0 | 0.00 | 0.06 | 0.06 | 89 | 1012.7 |
| 20260508075603 | 45 | 299 | 0.0 | 0.0 | 0.00 | 0.06 | 0.06 | 89 | 1012.7 |
| 20260508075105 | 45 | 299 | 0.0 | 3.0 | 0.00 | 0.06 | 0.06 | 89 | 1012.8 |
| 20260508074605 | 45 | 289 | 1.0 | 3.0 | 0.00 | 0.06 | 0.06 | 89 | 1012.9 |
| 20260508074103 | 45 | 297 | 1.0 | 3.0 | 0.00 | 0.07 | 0.06 | 89 | 1012.8 |
| 20260508073603 | 45 | 297 | 0.0 | 3.0 | 0.00 | 0.07 | 0.06 | 89 | 1012.8 |
| 20260508073103 | 45 | 297 | 2.0 | 3.0 | 0.00 | 0.07 | 0.06 | 89 | 1012.8 |
| 20260508072604 | 45 | 297 | 2.0 | 3.0 | 0.00 | 0.07 | 0.06 | 89 | 1012.7 |
| 20260508071604 | 45 | 267 | 0.0 | 3.0 | 0.00 | 0.07 | 0.06 | 89 | 1012.9 |
| 20260508071104 | 45 | 297 | 2.0 | 3.0 | 0.00 | 0.07 | 0.06 | 88 | 1013.0 |
| 20260508070604 | 45 | 317 | 1.0 | 3.0 | 0.00 | 0.07 | 0.06 | 88 | 1013.2 |
| 20260508070104 | 46 | 335 | 1.0 | 3.0 | 0.01 | 0.07 | 0.06 | 88 | 1013.1 |
| 20260508065604 | 46 | 308 | 1.0 | 3.0 | 0.01 | 0.08 | 0.06 | 88 | 1012.9 |
| 20260508065104 | 46 | 305 | 0.0 | 1.0 | 0.02 | 0.08 | 0.06 | 87 | 1012.7 |
| 20260508064604 | 46 | 305 | 0.0 | 2.0 | 0.02 | 0.08 | 0.06 | 87 | 1012.6 |
| 20260508064104 | 46 | 305 | 0.0 | 0.0 | 0.02 | 0.08 | 0.06 | 87 | 1012.6 |
| 20260508063604 | 46 | 305 | 1.0 | 2.0 | 0.03 | 0.08 | 0.06 | 86 | 1012.9 |
| 20260508062604 | 46 | 319 | 1.0 | 3.0 | 0.04 | 0.08 | 0.06 | 85 | 1013.1 |
| 20260508061604 | 46 | 299 | 0.0 | 3.0 | 0.05 | 0.09 | 0.06 | 85 | 1013.1 |
| 20260508060604 | 46 | 344 | 1.0 | 7.0 | 0.05 | 0.09 | 0.06 | 84 | 1013.2 |
| 20260508060105 | 47 | 1 | 0.0 | 2.0 | 0.05 | 0.08 | 0.05 | 84 | 1013.3 |
| 20260508055604 | 47 | 355 | 0.0 | 0.0 | 0.05 | 0.08 | 0.05 | 83 | 1013.3 |
| 20260508055105 | 47 | 1 | 0.0 | 0.0 | 0.04 | 0.07 | 0.04 | 83 | 1013.3 |
| 20260508054604 | 47 | 327 | 0.0 | 0.0 | 0.04 | 0.08 | 0.04 | 83 | 1013.1 |
| 20260508053604 | 47 | 308 | 0.0 | 0.0 | 0.03 | 0.07 | 0.03 | 82 | 1012.6 |
| 20260508053105 | 47 | 20 | 0.0 | 0.0 | 0.02 | 0.06 | 0.02 | 81 | 1011.9 |
| 20260508052604 | 48 | 99 | 0.0 | 0.0 | 0.02 | 0.06 | 0.02 | 80 | 1011.6 |
| 20260508052104 | 48 | 103 | 0.0 | 0.0 | 0.01 | 0.05 | 0.01 | 78 | 1011.7 |
| 20260508051604 | 48 | 103 | 0.0 | 0.0 | 0.01 | 0.05 | 0.01 | 77 | 1011.5 |
| 20260508051103 | 48 | 103 | 0.0 | 0.0 | 0.01 | 0.05 | 0.01 | 76 | 1011.6 |
| 20260508050604 | 49 | 104 | 0.0 | 0.0 | 0.01 | 0.05 | 0.01 | 76 | 1011.6 |
| 20260508050104 | 48 | 104 | 0.0 | 0.0 | 0.00 | 0.04 | 0.00 | 75 | 1011.6 |
| 20260508045604 | 48 | 104 | 0.0 | 0.0 | 0.00 | 0.04 | 0.00 | 74 | 1011.5 |
| 20260508045103 | 48 | 104 | 0.0 | 0.0 | 0.00 | 0.04 | 0.00 | 74 | 1011.4 |
| 20260508044604 | 48 | 104 | 0.0 | 0.0 | 0.00 | 0.04 | 0.00 | 74 | 1011.4 |
| 20260508043604 | 48 | 104 | 0.0 | 0.0 | 0.00 | 0.04 | 0.00 | 74 | 1011.3 |
| 20260508043104 | 48 | 104 | 0.0 | 0.0 | 0.00 | 0.04 | 0.00 | 75 | 1011.2 |
| 20260508042104 | 48 | 90 | 0.0 | 0.0 | 0.00 | 0.04 | 0.00 | 76 | 1011.2 |
| 20260508041604 | 48 | 90 | 0.0 | 0.0 | 0.00 | 0.04 | 0.00 | 76 | 1011.1 |
| 20260508040604 | 47 | 36 | 0.0 | 0.0 | 0.00 | 0.04 | 0.00 | 78 | 1011.1 |
| 20260508040105 | 47 | 29 | 0.0 | 0.0 | 0.00 | 0.04 | 0.00 | 77 | 1011.2 |
| 20260508035604 | 47 | 29 | 0.0 | 0.0 | 0.00 | 0.04 | 0.04 | 77 | 1011.2 |
| 20260508034605 | 47 | 29 | 0.0 | 0.0 | 0.00 | 0.04 | 0.04 | 76 | 1011.2 |
| 20260508034104 | 46 | 29 | 0.0 | 0.0 | 0.00 | 0.04 | 0.04 | 76 | 1011.2 |
| 20260508033604 | 46 | 29 | 0.0 | 0.0 | 0.00 | 0.04 | 0.04 | 76 | 1011.2 |
| 20260508033104 | 46 | 29 | 0.0 | 0.0 | 0.00 | 0.04 | 0.04 | 76 | 1011.3 |
| 20260508032604 | 46 | 29 | 0.0 | 0.0 | 0.00 | 0.04 | 0.04 | 76 | 1011.4 |
| 20260508032104 | 46 | 29 | 0.0 | 0.0 | 0.00 | 0.04 | 0.04 | 75 | 1011.3 |
| 20260508031604 | 46 | 29 | 0.0 | 0.0 | 0.00 | 0.04 | 0.04 | 74 | 1011.3 |
| 20260508031104 | 47 | 29 | 0.0 | 0.0 | 0.00 | 0.04 | 0.04 | 74 | 1011.2 |
| 20260508030605 | 47 | 29 | 0.0 | 0.0 | 0.00 | 0.04 | 0.04 | 73 | 1011.3 |
| 20260508025604 | 47 | 29 | 0.0 | 0.0 | 0.00 | 0.04 | 0.04 | 73 | 1011.4 |
| 20260508025104 | 47 | 29 | 0.0 | 0.0 | 0.00 | 0.04 | 0.04 | 73 | 1011.3 |
| 20260508024604 | 47 | 29 | 0.0 | 0.0 | 0.00 | 0.04 | 0.04 | 72 | 1011.2 |
| 20260508024103 | 48 | 29 | 0.0 | 0.0 | 0.00 | 0.04 | 0.04 | 72 | 1011.2 |
| 20260508023604 | 48 | 29 | 0.0 | 0.0 | 0.00 | 0.04 | 0.04 | 72 | 1011.1 |
| 20260508022604 | 48 | 29 | 0.0 | 0.0 | 0.00 | 0.04 | 0.04 | 72 | 1011.2 |
| 20260508022103 | 48 | 29 | 0.0 | 0.0 | 0.00 | 0.04 | 0.04 | 71 | 1011.2 |
| 20260508021604 | 48 | 29 | 0.0 | 0.0 | 0.00 | 0.04 | 0.04 | 70 | 1011.2 |
| 20260508021104 | 49 | 35 | 0.0 | 0.0 | 0.00 | 0.04 | 0.04 | 68 | 1011.0 |
| 20260508020603 | 49 | 35 | 0.0 | 8.0 | 0.00 | 0.04 | 0.04 | 67 | 1010.9 |
| 20260508020104 | 48 | 36 | 0.0 | 5.0 | 0.00 | 0.04 | 0.04 | 70 | 1010.9 |
| 20260508015604 | 48 | 54 | 0.0 | 3.0 | 0.00 | 0.04 | 0.04 | 70 | 1010.9 |
| 20260508015103 | 49 | 45 | 0.0 | 2.0 | 0.00 | 0.04 | 0.04 | 68 | 1010.8 |
| 20260508014604 | 49 | 45 | 0.0 | 0.0 | 0.00 | 0.04 | 0.04 | 67 | 1010.7 |
| 20260508013104 | 50 | 45 | 0.0 | 1.0 | 0.00 | 0.04 | 0.04 | 63 | 1010.5 |
| 20260508012604 | 50 | 45 | 0.0 | 0.0 | 0.00 | 0.04 | 0.04 | 64 | 1010.5 |
| 20260508012104 | 50 | 45 | 0.0 | 0.0 | 0.00 | 0.04 | 0.04 | 63 | 1010.5 |
| 20260508011604 | 50 | 45 | 0.0 | 0.0 | 0.00 | 0.04 | 0.04 | 62 | 1010.6 |
| 20260508011104 | 51 | 45 | 0.0 | 0.0 | 0.00 | 0.04 | 0.04 | 62 | 1010.5 |
| 20260508010104 | 51 | 45 | 0.0 | 0.0 | 0.00 | 0.04 | 0.04 | 60 | 1010.4 |
| 20260508005605 | 51 | 45 | 0.0 | 0.0 | 0.00 | 0.04 | 0.04 | 61 | 1010.3 |
| 20260508005103 | 52 | 45 | 0.0 | 0.0 | 0.00 | 0.04 | 0.04 | 60 | 1010.2 |
| 20260508004605 | 52 | 45 | 0.0 | 0.0 | 0.00 | 0.04 | 0.04 | 59 | 1010.3 |
| 20260508004104 | 52 | 45 | 0.0 | 0.0 | 0.00 | 0.04 | 0.04 | 58 | 1010.3 |
| 20260508003604 | 53 | 45 | 0.0 | 0.0 | 0.00 | 0.04 | 0.04 | 56 | 1010.1 |
| 20260508002605 | 53 | 45 | 0.0 | 0.0 | 0.00 | 0.04 | 0.04 | 55 | 1010.0 |
| 20260508001104 | 55 | 45 | 0.0 | 2.0 | 0.00 | 0.04 | 0.04 | 51 | 1009.9 |
| 20260508000104 | 56 | 18 | 0.0 | 1.0 | 0.00 | 0.04 | 0.04 | 49 | 1009.7 |
| 20260507235604 | 56 | 18 | 0.0 | 1.0 | 0.00 | 0.04 | 0.04 | 48 | 1009.7 |
| 20260507234603 | 57 | 18 | 0.0 | 0.0 | 0.00 | 0.04 | 0.04 | 45 | 1009.8 |
| 20260507234104 | 58 | 18 | 0.0 | 0.0 | 0.00 | 0.04 | 0.04 | 45 | 1009.7 |
| 20260507233603 | 58 | 18 | 0.0 | 2.0 | 0.00 | 0.04 | 0.04 | 42 | 1009.6 |
| 20260507233103 | 58 | 18 | 1.0 | 3.0 | 0.00 | 0.04 | 0.04 | 42 | 1009.7 |
| 20260507232604 | 59 | 26 | 0.0 | 3.0 | 0.00 | 0.04 | 0.04 | 42 | 1009.5 |
| 20260507232104 | 59 | 25 | 2.0 | 5.0 | 0.00 | 0.04 | 0.04 | 40 | 1009.3 |
| 20260507231604 | 59 | 40 | 2.0 | 5.0 | 0.00 | 0.04 | 0.04 | 40 | 1009.3 |
| 20260507231104 | 59 | 97 | 3.0 | 10.0 | 0.00 | 0.04 | 0.04 | 39 | 1009.3 |
| 20260507230604 | 59 | 38 | 2.0 | 9.0 | 0.00 | 0.04 | 0.04 | 40 | 1009.4 |
| 20260507230104 | 60 | 15 | 2.0 | 9.0 | 0.00 | 0.04 | 0.04 | 39 | 1009.3 |
| 20260507225604 | 60 | 53 | 2.0 | 12.0 | 0.00 | 0.04 | 0.04 | 39 | 1009.3 |
| 20260507225104 | 60 | 37 | 3.0 | 12.0 | 0.00 | 0.04 | 0.04 | 38 | 1009.3 |
| 20260507224603 | 60 | 13 | 3.0 | 8.0 | 0.00 | 0.04 | 0.04 | 39 | 1009.2 |
| 20260507224105 | 60 | 325 | 2.0 | 5.0 | 0.00 | 0.04 | 0.04 | 39 | 1009.4 |
| 20260507223603 | 60 | 358 | 2.0 | 10.0 | 0.00 | 0.04 | 0.04 | 38 | 1009.3 |
| 20260507222604 | 60 | 8 | 2.0 | 9.0 | 0.00 | 0.04 | 0.04 | 39 | 1009.5 |
| 20260507222104 | 61 | 348 | 2.0 | 9.0 | 0.00 | 0.04 | 0.04 | 39 | 1009.5 |
| 20260507221104 | 61 | 16 | 7.0 | 15.0 | 0.00 | 0.04 | 0.04 | 37 | 1009.4 |
| 20260507220603 | 61 | 22 | 2.0 | 8.0 | 0.00 | 0.04 | 0.04 | 40 | 1009.4 |
| 20260507220104 | 61 | 346 | 3.0 | 10.0 | 0.00 | 0.04 | 0.04 | 39 | 1009.4 |
| 20260507215604 | 61 | 30 | 2.0 | 9.0 | 0.00 | 0.04 | 0.04 | 40 | 1009.5 |
| 20260507215104 | 61 | 25 | 3.0 | 8.0 | 0.00 | 0.04 | 0.04 | 38 | 1009.5 |
| 20260507214604 | 61 | 15 | 2.0 | 9.0 | 0.00 | 0.04 | 0.04 | 39 | 1009.6 |
| 20260507213604 | 61 | 329 | 3.0 | 6.0 | 0.00 | 0.04 | 0.04 | 38 | 1009.3 |
| 20260507212603 | 62 | 73 | 3.0 | 14.0 | 0.00 | 0.04 | 0.04 | 37 | 1009.3 |
| 20260507212103 | 62 | 17 | 5.0 | 14.0 | 0.00 | 0.04 | 0.04 | 38 | 1009.2 |
| 20260507211603 | 61 | 17 | 5.0 | 9.0 | 0.00 | 0.04 | 0.04 | 38 | 1009.2 |
| 20260507211103 | 62 | 43 | 5.0 | 13.0 | 0.00 | 0.04 | 0.04 | 36 | 1009.1 |
| 20260507205603 | 63 | 34 | 5.0 | 12.0 | 0.00 | 0.04 | 0.04 | 38 | 1009.0 |
| 20260507205104 | 62 | 51 | 4.0 | 10.0 | 0.00 | 0.04 | 0.04 | 37 | 1008.9 |
| 20260507203605 | 64 | 338 | 7.0 | 15.0 | 0.00 | 0.04 | 0.04 | 35 | 1008.9 |
| 20260507203104 | 64 | 23 | 5.0 | 12.0 | 0.00 | 0.04 | 0.04 | 36 | 1008.9 |
| 20260507202604 | 64 | 63 | 3.0 | 12.0 | 0.00 | 0.04 | 0.04 | 37 | 1009.0 |
| 20260507202104 | 64 | 358 | 3.0 | 12.0 | 0.00 | 0.04 | 0.04 | 36 | 1009.0 |
| 20260507201603 | 64 | 344 | 5.0 | 15.0 | 0.00 | 0.04 | 0.04 | 37 | 1008.8 |
| 20260507200603 | 65 | 24 | 2.0 | 9.0 | 0.00 | 0.04 | 0.04 | 39 | 1009.0 |
| 20260507195604 | 63 | 41 | 6.0 | 12.0 | 0.00 | 0.04 | 0.04 | 39 | 1009.1 |
| 20260507195104 | 63 | 19 | 4.0 | 9.0 | 0.00 | 0.04 | 0.04 | 38 | 1009.1 |
| 20260507194604 | 64 | 318 | 5.0 | 9.0 | 0.00 | 0.05 | 0.04 | 37 | 1009.2 |
| 20260507194104 | 64 | 27 | 5.0 | 12.0 | 0.00 | 0.05 | 0.04 | 38 | 1009.3 |
| 20260507193103 | 65 | 16 | 3.0 | 6.0 | 0.00 | 0.05 | 0.04 | 40 | 1009.4 |
| 20260507191104 | 62 | 50 | 3.0 | 9.0 | 0.00 | 0.05 | 0.04 | 38 | 1009.5 |
| 20260507190604 | 63 | 325 | 6.0 | 12.0 | 0.00 | 0.05 | 0.04 | 38 | 1009.7 |
| 20260507190105 | 63 | 354 | 5.0 | 10.0 | 0.00 | 0.05 | 0.04 | 40 | 1009.8 |
| 20260507185103 | 63 | 4 | 6.0 | 17.0 | 0.00 | 0.05 | 0.04 | 39 | 1009.8 |
| 20260507184103 | 62 | 251 | 2.0 | 12.0 | 0.00 | 0.05 | 0.04 | 39 | 1010.0 |
| 20260507183103 | 63 | 340 | 6.0 | 12.0 | 0.00 | 0.05 | 0.04 | 37 | 1010.0 |
| 20260507182603 | 63 | 24 | 5.0 | 13.0 | 0.00 | 0.05 | 0.04 | 39 | 1010.2 |
| 20260507182104 | 61 | 337 | 2.0 | 8.0 | 0.00 | 0.05 | 0.04 | 42 | 1010.1 |
| 20260507181604 | 63 | 2 | 5.0 | 9.0 | 0.00 | 0.05 | 0.04 | 41 | 1010.3 |
| 20260507181104 | 63 | 42 | 5.0 | 12.0 | 0.00 | 0.05 | 0.04 | 40 | 1010.3 |
| 20260507180103 | 63 | 327 | 4.0 | 12.0 | 0.00 | 0.05 | 0.04 | 40 | 1010.3 |
| 20260507175604 | 63 | 356 | 4.0 | 12.0 | 0.00 | 0.06 | 0.04 | 40 | 1010.3 |
| 20260507175103 | 63 | 319 | 4.0 | 12.0 | 0.00 | 0.06 | 0.04 | 40 | 1010.4 |
| 20260507174104 | 62 | 49 | 5.0 | 12.0 | 0.00 | 0.07 | 0.04 | 41 | 1010.4 |
| 20260507172603 | 62 | 13 | 3.0 | 9.0 | 0.00 | 0.07 | 0.04 | 41 | 1010.6 |
| 20260507172104 | 62 | 5 | 3.0 | 12.0 | 0.00 | 0.07 | 0.04 | 40 | 1010.7 |
| 20260507171603 | 61 | 339 | 6.0 | 13.0 | 0.00 | 0.07 | 0.04 | 40 | 1010.8 |
| 20260507171104 | 61 | 347 | 4.0 | 12.0 | 0.00 | 0.07 | 0.04 | 44 | 1010.7 |
| 20260507170604 | 61 | 0 | 5.0 | 12.0 | 0.00 | 0.07 | 0.04 | 43 | 1010.8 |
| 20260507170104 | 62 | 354 | 4.0 | 12.0 | 0.00 | 0.07 | 0.04 | 40 | 1010.9 |
| 20260507165603 | 62 | 355 | 5.0 | 12.0 | 0.00 | 0.08 | 0.04 | 45 | 1010.8 |
| 20260507165104 | 61 | 310 | 5.0 | 12.0 | 0.00 | 0.08 | 0.04 | 40 | 1011.0 |
| 20260507164603 | 61 | 43 | 3.0 | 10.0 | 0.00 | 0.08 | 0.04 | 44 | 1011.1 |
| 20260507163603 | 60 | 28 | 3.0 | 12.0 | 0.00 | 0.08 | 0.04 | 46 | 1011.2 |
| 20260507163103 | 59 | 346 | 5.0 | 13.0 | 0.00 | 0.09 | 0.04 | 46 | 1011.3 |
| 20260507162604 | 60 | 358 | 4.0 | 10.0 | 0.00 | 0.09 | 0.04 | 44 | 1011.4 |
| 20260507162103 | 60 | 58 | 4.0 | 9.0 | 0.00 | 0.10 | 0.04 | 49 | 1011.4 |
| 20260507160604 | 60 | 23 | 4.0 | 9.0 | 0.00 | 0.11 | 0.04 | 46 | 1011.7 |
| 20260507160104 | 59 | 306 | 1.0 | 6.0 | 0.00 | 0.11 | 0.04 | 45 | 1011.7 |
| 20260507155603 | 59 | 29 | 3.0 | 7.0 | 0.00 | 0.11 | 0.04 | 44 | 1011.9 |
| 20260507155103 | 59 | 292 | 2.0 | 10.0 | 0.00 | 0.12 | 0.04 | 46 | 1012.0 |
| 20260507154604 | 59 | 329 | 4.0 | 8.0 | 0.00 | 0.12 | 0.04 | 43 | 1012.2 |
| 20260507154104 | 59 | 44 | 7.0 | 12.0 | 0.00 | 0.12 | 0.04 | 46 | 1012.2 |
| 20260507153604 | 59 | 62 | 3.0 | 10.0 | 0.00 | 0.12 | 0.04 | 48 | 1012.2 |
| 20260507153103 | 58 | 40 | 0.0 | 3.0 | 0.00 | 0.12 | 0.04 | 48 | 1012.2 |
| 20260507152604 | 58 | 25 | 4.0 | 9.0 | 0.00 | 0.12 | 0.04 | 48 | 1012.5 |
| 20260507152104 | 58 | 16 | 3.0 | 6.0 | 0.00 | 0.12 | 0.04 | 46 | 1012.4 |
| 20260507151603 | 58 | 344 | 4.0 | 12.0 | 0.00 | 0.12 | 0.04 | 46 | 1012.5 |
| 20260507151104 | 58 | 18 | 3.0 | 8.0 | 0.00 | 0.12 | 0.04 | 49 | 1012.4 |
| 20260507150105 | 57 | 58 | 7.0 | 14.0 | 0.00 | 0.12 | 0.04 | 46 | 1012.4 |
| 20260507145605 | 57 | 108 | 7.0 | 12.0 | 0.00 | 0.12 | 0.04 | 44 | 1012.4 |
| 20260507145106 | 58 | 144 | 5.0 | 13.0 | 0.00 | 0.12 | 0.04 | 45 | 1012.5 |
| 20260507144604 | 58 | 87 | 5.0 | 8.0 | 0.00 | 0.12 | 0.04 | 49 | 1012.5 |
| 20260507144105 | 57 | 313 | 2.0 | 3.0 | 0.00 | 0.12 | 0.04 | 47 | 1012.5 |
| 20260507143605 | 57 | 75 | 2.0 | 8.0 | 0.00 | 0.12 | 0.04 | 46 | 1012.6 |
| 20260507143104 | 57 | 313 | 4.0 | 7.0 | 0.00 | 0.12 | 0.04 | 47 | 1012.7 |
| 20260507142105 | 56 | 58 | 5.0 | 12.0 | 0.00 | 0.12 | 0.04 | 46 | 1012.7 |
| 20260507141605 | 56 | 39 | 3.0 | 12.0 | 0.00 | 0.12 | 0.04 | 45 | 1012.7 |
| 20260507140106 | 56 | 357 | 6.0 | 10.0 | 0.00 | 0.12 | 0.04 | 46 | 1013.0 |
| 20260507135105 | 55 | 60 | 6.0 | 12.0 | 0.00 | 0.12 | 0.04 | 46 | 1012.9 |
| 20260507134605 | 55 | 68 | 6.0 | 13.0 | 0.00 | 0.12 | 0.04 | 48 | 1012.9 |
| 20260507134106 | 54 | 69 | 6.0 | 15.0 | 0.00 | 0.12 | 0.04 | 48 | 1013.0 |
| 20260507133605 | 55 | 25 | 7.0 | 16.0 | 0.00 | 0.12 | 0.04 | 46 | 1013.0 |
| 20260507133105 | 55 | 52 | 6.0 | 13.0 | 0.00 | 0.12 | 0.04 | 48 | 1012.8 |
| 20260507132606 | 55 | 73 | 3.0 | 17.0 | 0.00 | 0.12 | 0.04 | 50 | 1012.8 |
| 20260507132105 | 54 | 33 | 2.0 | 8.0 | 0.00 | 0.12 | 0.04 | 54 | 1012.9 |
| 20260507131605 | 55 | 35 | 2.0 | 8.0 | 0.00 | 0.12 | 0.04 | 57 | 1012.8 |
| 20260507131105 | 54 | 38 | 2.0 | 9.0 | 0.00 | 0.12 | 0.04 | 61 | 1012.8 |
| 20260507130606 | 54 | 122 | 5.0 | 8.0 | 0.00 | 0.12 | 0.04 | 61 | 1012.7 |
| 20260507130105 | 54 | 358 | 1.0 | 8.0 | 0.00 | 0.12 | 0.04 | 65 | 1012.6 |
| 20260507125604 | 53 | 10 | 2.0 | 8.0 | 0.00 | 0.12 | 0.04 | 66 | 1012.6 |
| 20260507125106 | 53 | 70 | 1.0 | 8.0 | 0.00 | 0.12 | 0.04 | 67 | 1012.5 |
| 20260507124605 | 53 | 77 | 5.0 | 9.0 | 0.00 | 0.12 | 0.04 | 68 | 1012.5 |
| 20260507123605 | 52 | 73 | 6.0 | 12.0 | 0.00 | 0.12 | 0.04 | 70 | 1012.4 |
| 20260507123106 | 52 | 90 | 5.0 | 12.0 | 0.00 | 0.12 | 0.04 | 72 | 1012.4 |
| 20260507122605 | 51 | 63 | 6.0 | 12.0 | 0.00 | 0.12 | 0.04 | 74 | 1012.4 |
| 20260507121605 | 50 | 107 | 6.0 | 12.0 | 0.00 | 0.12 | 0.04 | 80 | 1012.4 |
| 20260507121105 | 50 | 71 | 5.0 | 12.0 | 0.00 | 0.12 | 0.04 | 85 | 1012.4 |
| 20260507120606 | 49 | 1 | 2.0 | 7.0 | 0.00 | 0.12 | 0.04 | 87 | 1012.3 |
| 20260507120104 | 49 | 48 | 0.0 | 2.0 | 0.00 | 0.12 | 0.04 | 87 | 1012.4 |
| 20260507115604 | 49 | 51 | 0.0 | 1.0 | 0.00 | 0.12 | 0.04 | 88 | 1012.4 |
| 20260507114604 | 50 | 25 | 0.0 | 2.0 | 0.00 | 0.12 | 0.04 | 89 | 1012.3 |
| 20260507114105 | 50 | 47 | 2.0 | 7.0 | 0.00 | 0.12 | 0.04 | 90 | 1012.2 |
| 20260507113605 | 50 | 356 | 1.0 | 3.0 | 0.00 | 0.12 | 0.04 | 90 | 1012.1 |